sat.trackr.live / text

‹ back to catalog

ABS-3A

NORAD 40424 · 2015-010A

PAYLOAD ACTIVE UNKNOWN

§ Identity

Operator
Country
ABS
Launch date
2015-03-02
Launch site
AFETR
Launch vehicle
Mass (kg)
RCS (m²)
6.02

Purposes: comms

External: N2YO · Heavens-Above · Gunter

§ Orbital elements

Epoch: 2026-09-19T08:24:11.200032Z

Period
1,436.09 min
Inclination
0.0035°
Eccentricity
0.0001973
Mean motion
1.00272194 rev/d
Perigee alt
35,778.2 km
Apogee alt
35,794.8 km
Semi-major
42,164.6 km
B*
0.0000e+0
RAAN
179.7278°
Arg perigee
302.3649°
Mean anomaly
359.2216°
Rev number
4,232

§ Raw data

ABS-3A1 40424U 15010A   26262.35012963 -.00000031  00000+0  00000+0 0  99912 40424   0.0035 179.7278 0001973 302.3649 359.2216  1.00272194 42327

JSON: /api/v1/satellites/40424 · /tle

For live sub-satellite position, see the globe view (requires WebGL).

§ Visibility from observer

Set your observer location to see the next 7 days of passes ≥ 10°. The values pass through the URL so the page stays shareable.

No JS? Fill the form by hand. The geolocation button needs JavaScript.